Temp
12 13 10 11 10 11 12 12 12 13 12 11 11 11 11 11 11 10 10 11 10 10 10 10 10 10 10 10 11 11 11 11 11
12 11 10 10 11 13 13 13 13 12 12 12 11 11 11 11 11 10 10 10 10 10 11 11 11 11 12 12 12 12 11 11 11
12 11 10 11 12 12 12 12 12 12 12 11 12 12 12 12 11 11 10 10 11 11 11 11 11 11 11 12 11 12 12 11 11
11 11 11 12 13 13 12 12 12 12 12 12 11 11 11 11 11 11 11 11 11 11 11 11 11 11 12 12 12 12 12 12 12
11 11 13 13 12 12 12 12 12 12 11 11 11 11 11 10 10 10 11 11 11 11 11 11 12 12 12 12 12 12 12 12 12
11 12 12 13 12 12 12 12 12 11 11 11 11 10 10 10 10 11 11 11 11 11 11 11 11 12 12 12 12 12 12 12 12
12 11 12 12 12 12 12 12 11 11 11 10 10 10 10 10 10 10 10 10 11 11 11 11 12 12 12 12 12 12 12 12 12
12 12 12 12 12 12 12 11 10 10 10 10 10 10 10 10 10 10 10 10 11 11 11 11 11 11 11 11 11 11 11 11 12
11 12 12 12 12 12 11 11 10 10 10 10 10 9 9 10 10 10 10 10 11 11 11 11 11 11 11 11 11 11 11 11 11
12 12 12 12 12 11 10 10 10 10 10 10 9 9 9 10 10 10 10 10 10 10 10 10 10 10 10 10 11 11 11 11 11
13 13 13 12 11 11 11 10 10 10 10 10 9 9 9 10 10 10 10 10 10 10 10 10 10 10 10 10 10 10 10 10 10
13 13 12 12 12 12 11 11 11 10 10 9 9 9 9 9 9 10 10 10 10 10 9 10 10 10 10 10 9 9 10 10 10
12 11 11 11 11 12 12 11 10 10 10 9 9 9 10 9 9 9 9 9 9 9 9 9 9 9 9 9 9 9 9 9 9
11 10 10 10 10 12 12 11 10 10 9 9 9 9 9 9 9 9 9 8 8 8 8 9 9 8 8 8 8 9 8 8 8
11 10 10 9 10 11 11 10 10 9 9 9 9 9 9 9 8 8 8 8 8 8 8 8 8 8 8 8 8 8 8 8 8
10 10 10 11 10 10 10 9 9 9 9 9 9 8 8 8 8 8 8 7 7 7 7 7 7 7 7 7 7 8 7 7 7
10 10 9 9 9 9 9 9 9 8 8 8 8 8 7 7 7 7 7 7 7 7 7 7 7 6 6 6 6 6 6 6 6
10 9 9 9 9 9 9 9 8 8 8 7 7 7 7 7 7 7 7 7 6 6 6 6 6 6 6 6 5 5 5 5 5
9 9 8 8 8 7 7 7 7 7 7 7 6 6 6 6 6 6 6 6 6 6 6 5 5 5 5 5 5 4 4 4 4
8 8 8 8 7 7 7 6 6 6 6 6 6 6 6 5 6 5 5 5 5 5 5 5 5 4 4 4 4 4 4 4 4
Height
3171 3173 3174 3177 3179 3181 3183 3185 3187 3187 3189 3190 3190 3191 3192 3190 3191 3190 3190 3188 3190 3189 3189 3189 3188 3187 3187 3187 3187 3186 3186 3185 3185
3173 3173 3174 3175 3176 3178 3181 3183 3185 3187 3188 3189 3189 3189 3189 3188 3188 3187 3187 3186 3186 3186 3185 3184 3184 3183 3182 3181 3180 3180 3179 3179 3179
3176 3173 3175 3173 3176 3178 3180 3182 3185 3186 3187 3187 3187 3187 3186 3185 3184 3183 3183 3182 3182 3181 3180 3179 3178 3178 3176 3176 3175 3174 3173 3173 3173
3174 3174 3173 3173 3175 3178 3180 3182 3184 3185 3185 3186 3186 3184 3182 3181 3181 3179 3179 3178 3177 3176 3176 3175 3174 3173 3172 3171 3170 3169 3168 3167 3167
3172 3170 3171 3173 3176 3178 3180 3181 3182 3184 3185 3185 3183 3182 3180 3178 3177 3175 3175 3174 3173 3172 3171 3170 3170 3169 3167 3166 3165 3163 3162 3162 3160
3168 3168 3170 3172 3174 3176 3178 3180 3182 3183 3183 3182 3181 3178 3176 3175 3174 3172 3171 3170 3170 3169 3167 3166 3164 3163 3161 3160 3159 3157 3156 3155 3154
3166 3167 3168 3170 3172 3175 3177 3179 3180 3181 3181 3180 3179 3176 3175 3172 3171 3170 3168 3167 3166 3164 3163 3162 3160 3159 3157 3156 3154 3154 3152 3150 3148
3163 3165 3167 3168 3170 3173 3176 3177 3178 3179 3179 3178 3177 3175 3172 3171 3168 3167 3166 3165 3163 3162 3160 3158 3156 3154 3152 3152 3149 3150 3148 3146 3144
3162 3163 3165 3166 3168 3172 3174 3175 3176 3176 3177 3176 3174 3172 3169 3167 3165 3164 3162 3161 3160 3158 3156 3154 3152 3150 3148 3147 3145 3143 3142 3140 3138
3159 3161 3163 3164 3166 3170 3171 3173 3174 3174 3174 3173 3171 3169 3166 3164 3162 3161 3160 3158 3156 3154 3152 3151 3148 3146 3144 3142 3141 3139 3137 3135 3133
3156 3159 3161 3162 3164 3166 3168 3169 3170 3171 3171 3169 3167 3165 3162 3160 3158 3157 3156 3154 3152 3150 3148 3146 3144 3142 3140 3138 3137 3134 3132 3130 3128
3154 3156 3158 3160 3162 3163 3164 3165 3167 3167 3167 3166 3164 3161 3158 3156 3154 3152 3151 3149 3147 3145 3143 3141 3140 3138 3135 3133 3132 3129 3127 3125 3122
3153 3154 3155 3157 3158 3159 3160 3161 3163 3163 3163 3162 3160 3157 3154 3152 3150 3148 3146 3145 3142 3140 3138 3136 3135 3133 3130 3127 3126 3124 3122 3120 3117
3153 3153 3154 3155 3155 3155 3156 3158 3159 3159 3159 3158 3156 3153 3150 3148 3146 3144 3142 3140 3138 3136 3134 3132 3130 3128 3125 3123 3121 3121 3118 3114 3112
3153 3150 3152 3152 3151 3151 3152 3154 3154 3154 3154 3152 3150 3147 3145 3143 3141 3139 3137 3135 3133 3131 3129 3127 3125 3123 3121 3118 3116 3115 3112 3108 3105
3146 3145 3151 3148 3148 3148 3149 3150 3149 3148 3148 3146 3143 3141 3139 3138 3135 3133 3132 3131 3127 3125 3124 3122 3119 3117 3116 3113 3109 3109 3106 3103 3100
3143 3144 3145 3144 3143 3144 3145 3145 3144 3142 3141 3139 3137 3135 3133 3131 3130 3129 3127 3124 3122 3120 3119 3117 3115 3113 3111 3109 3105 3103 3101 3099 3096
3140 3142 3141 3140 3138 3138 3138 3139 3137 3135 3134 3133 3131 3129 3127 3126 3125 3124 3121 3120 3119 3117 3115 3113 3110 3108 3106 3103 3101 3098 3095 3093 3090
3136 3137 3135 3134 3133 3132 3131 3131 3131 3130 3128 3127 3125 3124 3123 3122 3120 3118 3116 3115 3113 3112 3110 3108 3106 3103 3101 3098 3096 3093 3091 3088 3085
3133 3132 3131 3130 3129 3128 3127 3126 3125 3124 3123 3122 3121 3119 3118 3116 3115 3113 3112 3110 3109 3107 3106 3103 3101 3099 3096 3094 3092 3090 3087 3084 3081
Wind_Speed
9 6 9 11 9 13 14 13 12 9 7 12 12 12 12 12 14 15 16 15 12 17 20 20 22 22 22 23 23 21 19 21 22
9 10 11 15 16 21 19 13 14 13 8 8 11 12 15 17 16 17 18 20 21 21 24 22 23 24 23 22 23 22 22 22 20
13 11 13 12 15 15 18 18 13 11 10 10 12 13 15 17 16 16 17 18 21 21 21 21 20 20 21 21 22 22 22 22 22
13 15 14 12 9 10 11 11 11 11 8 7 10 15 18 19 16 15 17 17 19 20 20 20 21 20 20 20 22 22 22 21 20
17 19 12 9 8 10 10 11 10 7 6 9 14 16 17 16 16 17 18 17 17 18 19 19 20 20 20 20 20 19 20 19 20
21 15 15 12 12 13 12 11 8 7 10 14 16 17 18 17 18 18 18 18 18 18 18 19 20 21 20 20 21 21 21 22 21
19 16 15 13 14 13 12 11 10 11 12 14 16 18 19 18 18 17 18 18 18 19 19 20 20 20 21 22 22 22 21 21 22
17 12 16 16 16 13 13 14 12 11 13 15 18 20 21 18 16 15 16 16 17 18 19 20 21 21 21 21 24 21 22 22 22
21 15 17 16 16 13 15 16 14 14 15 18 19 21 22 20 17 16 15 16 17 19 21 22 21 22 21 21 22 22 24 23 23
20 13 15 18 17 13 15 16 16 16 16 17 20 23 24 20 16 16 16 17 19 20 21 21 21 21 21 21 21 22 23 24 23
18 16 15 16 16 13 15 16 15 16 16 18 22 26 24 19 17 17 17 19 20 22 21 20 20 21 21 21 20 21 21 22 22
19 20 18 14 15 15 16 16 14 17 18 20 24 27 26 20 19 19 20 21 23 22 21 20 19 19 19 20 20 20 21 22 22
15 17 17 18 19 19 17 16 17 20 21 22 25 28 25 21 20 20 21 22 21 20 20 20 19 19 21 21 21 21 22 22 22
15 18 22 24 25 23 18 18 21 22 24 25 27 27 22 20 20 21 22 21 19 19 19 20 20 20 20 22 22 21 20 22 22
13 21 21 22 27 25 23 21 22 24 25 28 29 25 22 21 21 21 20 19 19 19 19 19 19 20 20 21 22 22 21 22 23
20 24 20 28 27 27 21 20 23 26 29 29 27 23 22 22 20 19 19 19 18 19 20 20 20 21 21 22 25 22 21 22 23
9 11 12 15 19 19 20 22 25 29 30 26 23 23 22 20 19 18 19 18 19 20 18 19 19 20 20 21 22 22 22 22 21
13 15 17 20 23 24 25 25 26 25 23 22 23 22 20 19 19 19 18 18 17 18 18 19 20 20 20 21 21 22 21 21 21
16 19 18 18 18 20 21 20 20 21 22 21 20 19 19 19 18 18 19 18 18 18 18 19 20 20 20 20 21 21 21 21 19
18 19 18 17 18 19 20 20 21 21 19 19 18 18 18 18 18 19 19 19 19 19 19 19 17 17 19 20 20 20 19 19 19
Wind_Direction
185 172 176 182 189 193 209 220 250 273 283 280 291 292 297 295 292 284 281 284 287 285 295 298 292 290 291 290 290 289 287 283 280
168 159 158 188 199 212 225 247 251 274 291 281 284 287 292 289 285 280 281 281 284 290 292 290 290 289 290 292 293 294 293 288 283
181 183 183 221 219 221 225 238 237 249 268 282 291 297 298 295 288 286 283 283 287 291 295 296 293 292 295 297 298 298 296 293 292
172 171 207 206 209 212 208 207 226 247 262 284 305 307 305 300 296 292 290 293 294 297 297 297 297 297 298 297 297 297 297 294 290
182 211 201 215 217 220 231 236 229 226 266 303 317 318 314 310 299 297 298 299 298 298 299 298 298 298 298 299 301 304 301 301 297
206 228 208 221 232 232 233 233 236 264 298 316 322 322 319 316 307 300 298 299 299 300 300 301 303 304 304 304 307 307 313 311 309
218 237 219 226 231 232 234 231 244 276 303 322 327 324 319 312 305 301 299 300 300 303 304 303 301 300 301 304 303 309 309 309 308
217 240 215 221 234 241 243 240 261 283 307 322 323 319 319 312 301 294 293 295 300 303 303 304 304 303 301 304 304 309 306 305 305
211 236 220 229 244 238 246 252 270 284 303 314 321 324 322 313 300 296 299 301 305 306 306 303 301 299 302 303 305 307 307 308 308
227 256 229 232 245 241 250 251 264 276 297 310 320 322 321 312 298 295 296 300 305 307 305 301 299 299 299 298 302 303 305 306 307
253 271 243 242 244 251 247 251 263 276 289 305 315 318 320 311 302 297 298 299 303 306 304 301 299 298 298 299 303 303 305 305 306
245 263 257 250 250 248 251 254 260 267 282 296 309 317 317 310 304 303 304 306 306 305 303 301 301 301 302 304 306 306 307 307 308
219 236 248 241 243 249 252 251 255 268 280 294 306 314 311 307 304 304 303 303 305 305 303 303 304 306 306 306 307 309 308 309 308
211 213 227 242 243 253 261 255 260 271 283 293 304 308 304 304 305 304 304 303 301 301 305 305 305 304 305 305 306 307 310 307 306
194 203 228 242 252 264 260 261 268 277 286 295 302 303 303 303 303 302 303 299 298 303 305 305 304 303 303 304 306 310 312 307 310
207 232 249 260 262 261 263 269 276 282 288 296 299 299 301 302 303 302 297 296 305 308 306 306 309 310 310 311 311 317 313 312 312
272 269 267 267 270 273 276 278 281 286 290 293 296 299 300 302 301 297 296 304 307 306 306 304 305 306 309 309 309 314 312 310 310
309 305 294 283 281 281 279 278 280 283 288 294 296 297 298 298 297 297 302 303 299 300 303 303 306 309 309 310 311 314 315 315 317
318 320 306 291 282 280 283 287 286 290 295 296 295 295 292 294 296 302 304 304 305 305 305 305 306 309 310 312 314 316 316 316 318
317 320 311 297 288 285 287 290 292 295 293 293 293 293 294 299 301 299 300 302 302 303 302 307 307 308 309 313 315 315 317 318 319